Barcelona, Venezuela

7:24 AM -04 on December 15, 2017 (GMT -0400)
General Jose Antonio Anzoategui

Weather History for SVBC - September, 2013

Change the Weather History Date:

Thursday, September 5, 2013

  Actual Average Record
Temperature  
Mean Temperature 85 °F -  
Max Temperature 95 °F 91 °F 95 °F (2008)
Min Temperature 75 °F 73 °F 71 °F (2000)
Cooling Degree Days 20    
Growing Degree Days 35 (Base 50)    
Moisture  
Dew Point 73 °F    
Average Humidity 74    
Maximum Humidity 100    
Minimum Humidity 33    
Precipitation  
Precipitation 0.00 in 0.10 in - ()
Sea Level Pressure  
Sea Level Pressure 29.91 in    
Wind  
Wind Speed 2 mph ()    
Max Wind Speed 23 mph    
Max Gust Speed -    
Visibility 6.6 miles    
Events      
Averages and records for this station are not official NWS values.
T = Trace of Precipitation, MM = Missing Value Source: Averaged Metar Reports

Daily Weather History Graph

Daily Weather History Graph

Search for Another Location

Airport or City:

Trip Planner

Search our weather history database for the weather conditions in past years. The results will help you decide how hot, cold, wet, or windy it might be!

Date:

Astronomy

Sep. 05, 2013 Rise Set
Actual Time 5:39 AM -0430 5:55 PM -0430
Civil Twilight 5:18 AM -0430 6:16 PM -0430
Nautical Twilight 4:53 AM -0430 6:41 PM -0430
Astronomical Twilight 4:28 AM -0430 7:05 PM -0430
Moon 5:36 AM -0430 (9/5) 6:00 PM -0430 (9/5)
Length of Visible Light 12h 58m
Length of Day
12h 16m
New Moon, 0% of the Moon is Illuminated
Sep 5
New Moon
Sep 12
First Quarter
Sep 19
Full
Sep 26
Last Quarter
Oct 4
New

Hourly Weather History & Observations

Time (-0430) Temp. Heat Index Dew Point Humidity Pressure Visibility Wind Dir Wind Speed Gust Speed Precip Events Conditions
12:30 AM 77.0 °F - 77.0 °F 100% 29.89 in 6.2 mi Calm Calm - N/A   Partly Cloudy
1:30 AM 78 °F - 76 °F 91% 29.96 in 6 mi Calm Calm - -   Scattered Clouds
1:30 AM 77.0 °F - 75.2 °F 94% 29.89 in 6.2 mi Calm Calm - N/A   Partly Cloudy
2:30 AM 75.2 °F - 75.2 °F 100% 29.89 in 6.2 mi Calm Calm - N/A   Partly Cloudy
3:30 AM 75.2 °F - 75.2 °F 100% 29.89 in 6.2 mi Calm Calm - N/A   Partly Cloudy
4:30 AM 75.2 °F - 73.4 °F 94% 29.89 in 6.2 mi Calm Calm - N/A   Partly Cloudy
5:30 AM 75.2 °F - 75.2 °F 100% 29.92 in 6.2 mi Calm Calm - N/A   Partly Cloudy
6:30 AM 75.2 °F - 75.2 °F 100% 29.89 in 6.2 mi Calm Calm - N/A   Partly Cloudy
7:30 AM 78 °F - 74 °F 84% 30.00 in 12 mi Calm Calm - -   Scattered Clouds
7:30 AM 78.8 °F - 73.4 °F 83% 29.92 in 6.2 mi Calm Calm - N/A   Partly Cloudy
8:30 AM 84.2 °F 90.9 °F 73.4 °F 70% 29.95 in 6.2 mi Calm Calm - N/A   Partly Cloudy
9:30 AM 87.8 °F 95.6 °F 73.4 °F 62% 29.95 in 6.2 mi Calm Calm - N/A   Partly Cloudy
10:30 AM 89.6 °F 96.2 °F 71.6 °F 55% 29.95 in 6.2 mi Calm Calm - N/A   Partly Cloudy
11:30 AM 91.4 °F 95.4 °F 68.0 °F 46% 29.92 in 6.2 mi North 11.5 mph - N/A   Partly Cloudy
12:30 PM 93.2 °F 100.5 °F 71.6 °F 49% 29.95 in 6.2 mi South 23.0 mph - N/A   Partly Cloudy
1:30 PM 95 °F - 69 °F 33% 29.95 in 12 mi SSW 10.4 mph - -   Scattered Clouds
1:30 PM 95.0 °F 101.3 °F 69.8 °F 44% 29.89 in 6.2 mi SSW 20.7 mph - N/A   Partly Cloudy
2:30 PM 93.2 °F 98.8 °F 69.8 °F 46% 29.83 in 6.2 mi South 11.5 mph - N/A   Scattered Clouds
3:30 PM 87.8 °F 95.6 °F 73.4 °F 62% 29.80 in 6.2 mi South 11.5 mph - N/A   Mostly Cloudy
4:30 PM 86.0 °F 91.8 °F 71.6 °F 62% 29.83 in 6.2 mi Calm Calm - N/A   Mostly Cloudy
5:30 PM 86.0 °F 91.8 °F 71.6 °F 62% 29.83 in 6.2 mi Calm Calm - N/A   Scattered Clouds
6:30 PM 84.2 °F 90.9 °F 73.4 °F 70% 29.86 in 6.2 mi Calm Calm - N/A   Scattered Clouds
7:30 PM 84.2 °F 90.9 °F 73.4 °F 70% 29.86 in 6.2 mi Calm Calm - N/A   Scattered Clouds
8:30 PM 82.4 °F 88.2 °F 73.4 °F 74% 29.92 in 6.2 mi Calm Calm - N/A   Scattered Clouds
9:30 PM 80.6 °F 85.4 °F 73.4 °F 79% 29.92 in 6.2 mi Calm Calm - N/A   Scattered Clouds
10:30 PM 78.8 °F - 73.4 °F 83% 29.95 in 6.2 mi Calm Calm - N/A   Scattered Clouds
11:30 PM 77.0 °F - 73.4 °F 89% 29.98 in 6.2 mi Calm Calm - N/A   Scattered Clouds